Flag for Austria Weather past 2 weeks in Rust, Burgenland, Austria

Now
52 °F

Scattered clouds.


Feels Like: 51 °F
Forecast: 47 / 68 °F
Wind: 3 mph from Northwest

Location: Eisenstadt

Current Time: May 27, 2015 at 7:53:21 AM

Latest Report: May 27, 2015 at 7:00 AM


Visibility: 16 mi

Pressure: 30.03 "Hg

Humidity: 66%

Dew point: 41 °F

Location of RustLocation

Historic Weather in Rust — Graph

°F

Rust temperature yesterday

Maximum temperature yesterday: 60 °F (at 4:00 PM)
Minimum temperature yesterday: 55 °F (at 10:00 PM)
Average temperature yesterday: 58 °F

Past Weeks' High & Low Weather Summary

 TemperatureHumidityPressure
High78 °F (May 12, 4:00 PM)95% (May 16, 12:00 AM)30.27 "Hg (May 16, 12:00 AM)
Low47 °F (May 12, 6:00 AM)29% (May 12, 12:00 PM)29.73 "Hg (May 19, 6:00 AM)
Average59 °F72%29.97 "Hg
* Reported May 12 6:00 AM — May 27 6:00 AM, Rust, Weather by CustomWeather, © 2015

Note: Actual official high and low records may vary slightly from our data, if they occured in-between our weather recording intervals... More about our weather records

Advertising

Rust weather history for previous 24 hours

 ConditionsComfort  
Time TempWeatherWind HumidityBarometerVisibility
6:00 AM
Wed, May 27
51 °FPartly sunny.3 mph69%30.02 "Hg19 mi
4:00 AM53 °FPassing clouds.5 mph68%29.99 "Hg7 mi
3:00 AM53 °FCool.3 mph68%29.98 "HgN/A
2:00 AM54 °FOvercast.5 mph66%29.97 "Hg6 mi
1:00 AM54 °FCool.3 mph71%29.97 "HgN/A
12:00 AM53 °FCool.2 mph79%29.97 "HgN/A
10:00 PM
Tue, May 26
55 °FCool.3 mph82%29.96 "HgN/A
9:00 PM56 °FCool.6 mph76%29.93 "HgN/A
8:00 PM56 °FOvercast.6 mph78%29.90 "Hg7 mi
7:00 PM57 °FOvercast.6 mph75%29.88 "Hg6 mi
6:00 PM59 °FCool.6 mph77%29.86 "HgN/A
5:00 PM60 °FOvercast.7 mph79%29.85 "Hg6 mi
4:00 PM60 °FCool.5 mph81%29.84 "HgN/A
3:00 PM60 °FSprinkles. Cloudy.5 mph83%29.84 "HgN/A
2:00 PM59 °FLight rain. Overcast.5 mph89%29.84 "Hg9 mi
1:00 PM58 °FFog.5 mph87%29.84 "HgN/A
12:00 PM58 °FFog.3 mph86%29.83 "HgN/A
11:00 AM58 °FLight rain. Overcast.3 mph85%29.81 "Hg9 mi
10:00 AM58 °FFog.5 mph84%29.80 "HgN/A
9:00 AM59 °FCool.6 mph75%29.79 "HgN/A
8:00 AM58 °FCool.6 mph77%29.76 "HgN/A
7:00 AM58 °FLight rain. Overcast.6 mph80%29.77 "Hg9 mi
Weather by CustomWeather, © 2015

See weather overviewHow to use our weather pages